Weather in Breitovo

Russia / Yaroslavl Oblast     58°18′01″N   37°51′46″E
temp.,
°C
wind,
m/s
gust,
m/s
humid.,
%
clouds,
%
prec.,
mm/h
press.,
hPa
HPBL,
m
14 may, fri
fri1400:00+11ssw389162 0.2 1015200
03:00+9s389695 0.2 1016207
06:00+9ssw49944 0.0 1016286
09:00+14ssw476422 0.0 1017795
12:00+17s4652100 0.0 10171447
15:00+18s244862 0.0 10161722
18:00+16ese357080 0.1 1015164
21:00+13ese358895 0.1 101488
15 may, sat
sat1500:00+12se399779 0.0 1013193
03:00+11se2698100 0.0 1012120
06:00+11e369866 0.0 1011163
09:00+17se358149 0.1 1010558
12:00+20s4667100 0.3 10091159
15:00+20s4774100 3.2 1007892
18:00+19ssw487723 2.8 1006437
21:00+14sw22881 4.9 100729
16 may, sun
sun1600:00+12ssw389579 0.0 1008150
03:00+12s410965 0.0 1008233
06:00+12ssw512945 0.0 1008424
09:00+15ssw598599 0.0 1009652
12:00+16sw597565 0.4 1010927
15:00+18sw587789 1.9 10101035
18:00+17sw488325 1.4 1010758
21:00+13sw379636 1.8 1012138
17 may, mon
mon1700:00+11sw3596100 0.0 101389
03:00+11sw23953 0.0 101438
06:00+12ssw25930 0.0 1015128
09:00+17s34711 0.0 1015503
12:00+20sse2456100 0.0 10151188
15:00+21ese245695 0.0 10141176
18:00+18e3671100 0.0 1013219
21:00+16ese3108442 0.0 1012206
18 may, tue
tue1800:00+14ese31296100 0.6 1011282
03:00+14se3119699 0.6 1009224
06:00+15se4119085 0.0 1008258
09:00+20sse596516 0.0 1007487
12:00+23sse61051100 0.0 1007903
15:00+25sse51248100 0.0 10061794
18:00+23se6125790 0.0 10051062
21:00+17s51388100 1.1 1005650